Showing default

EUTE 28A (EB 1), 26719

Orbit data source: Space-Track

EUTE 28A (EB 1), 26719 is a payload satellite owned by Eutelsat (FR) in GEO that was launched on Thu, 08 Mar 2001 UTC via an ARIANE 5G launch vehicle from the French Guiana (FRGUI). Payloads include a variety of satellites, spacecraft, and rockets equipped with specific instruments for various scientific and technological missions. These include communications satellites like Starlink; space stations such as the ISS; scientific satellites like the Hubble; Earth observation satellites from companies like Planet Labs, Umbra, and HawkEye 360; GPS; miniature CubeSats for education and research; and military/defense satellites.

Not visible in the next 10 days
EUTE 28A (EB 1) details
Identifier
26719, 2001-011A
Orbit
GEO
Last TLE update2 days ago
Origin
Flag of FREutelsat (FR / EUTE)
ManufacturerAlcatel/Cannes
MissionNon-operational Commercial Communications
Bus & MotorSPACEBUS 3000B2, S400
Mass3,050 kg wet, ~1,300 kg dry
Launch date (UTC)
2001-03-08 (24 years ago)
Launch vehicle
ARIANE 5G
Launch site
French Guiana (FRGUI)
Object type
Payload
Rocket body
Debris
Shape & HBRBox + 2 Pan, 2.3 m
Radar Cross Section27.172 m², Large (>1 m²)

Expand to show TLE details & history

TLE from 2 days ago
0 EUTE 28A (EB 1)
1 26719U 01011A   25045.82724126 -.00000190  00000-0  00000-0 0  9997
2 26719   6.1472  72.8000 0008242 268.1429  99.1306  0.98794630 87573
Epoch: 2025-02-14T19:51Z
Definitive object data (Epoch: 2025-02-14T19:51:13.644Z)
Latitude0.76954°
Longitude-2.74094°
Altitude36,210.984 km
Speed3.059 km/s
True Right ascension05h 20m 35s
True Declination0° 46' 08"
Sunlit
Object was in daylight at TLE epoch
Visualization TLE readout
Latitude-4.58678°
Longitude-141.95542°
Altitude36,178.947 km
Speed3.061 km/s
Apparent Right ascension20h 29m 51s
Apparent Declination-9° 51' 29"
Sunlit
Object is in daylight
Visualization observer readout
Local Sidereal Time13:50:06
Azimuth91.309° ESE
Elevation-13.904°
Doppler factor1
Orbital elements
Apogee altitude36,241.987 km
Perigee altitude36,171.79 km
Semi-major axis42,585.026 km
Eccentricity0.0008242
Inclination6.1472°
RAAN72.8°
Arg. of periapsis268.1429°
True anomaly99.22383°
Mean anomaly99.1306°
Eccentric anomaly99.17722°
Mean motion0.24698 °/min
BSTARUnknown
Orbital period1457.62 mins
Loading historical data...
26719 neighbors
Authenticating...
Loading maneuver chart data...
Loading historical data...
Loading historical data...
Loading historical data...
Loading historical data...
Loading historical data...
Loading historical data...
Loading historical data...
Other satellites on launch #11 in the year 2001 (2001-03-08 UTC)

EUTE 28A (EB 1) Visibility forecast

Observer location: undefined°, undefined

EUTE 28A (EB 1) is not visible in the next 10 days
Span
Click to sort rows by Start time (UTC) header in descending order
Start Az.
Max El. time (UTC)
Max El. Az.
Max El.
End time (UTC)
End Az.
|